星链-2070 (STARLINK-2070 )

导读 | 豆包AI

STARLINK-2070是美国SpaceX星链计划的低轨互联网卫星,NORAD编号47360,于2021年1月20日在佛罗里达州美国空军东试验靶场发射。该卫星轨道倾角53.024°,平均高度约182.1千米,轨道周期约88分钟。它与其他二十余颗星链卫星一同入轨,旨在为全球提供低延迟宽带覆盖,最终于2024年8月13日再入大气层解体陨落。

Basic Information
目录编号:
47360
目录名称:
STARLINK-2070
国际标识:
2021-005M
轨道中心:
EARTH
卫星名称:
星链-2070
卫星全名:
星链-2070 (STARLINK-2070 )
卫星状态:
已陨落 最后检测时间 2024-08-13
发射日期:
2021-01-20 UTC
国别 :
美国 (US)
星等 :
--
Orbit Information
数据来源 国际轨道数据
星历时间: 2024-08-14T03:41:36+0800
轨道信息已过期624天
半长轴: 6553.146km
偏心率: 0.0009491
轨道倾角: 53.024°
近地点辐角 287.913°
升交点赤经 9.376°
平近点角 184.989°
近地点: 168.791km
远地点: 181.231km
周期: 87.990分钟
每日圈数: 16.365452
Detailed Information
固有亮度:
5
最大亮度:
2.5
卫星平台:
Starlink V1.0
覆盖范围:
全球
运营商:
太空探索技术公司
运营商所在国:
美国
制造商(研发单位):
太空探索技术公司
制造商所在国:
美国
使用方式:
暂无
Satellite Introduction
星链(Starlink)计划是由太空探索技术公司(SpaceX)提出的一个巨型低轨卫星互联网星座项目,计划在2019年至2024年间在太空搭建由约1.2万颗卫星组成的“星链”网络,其中1584颗将部署在地球上空550千米处的近地轨道,并从2020年开始工作。该卫星仍在工作。